Flag for Germany Weather past 2 weeks in Schwerin, Mecklenburg-Western Pomerania, Germany

Now
59 °F

Passing clouds.


Feels Like: 59 °F
Forecast: 54 / 66 °F
Wind: 7 mph from West

Location: Schwerin

Current Time: Sep 1, 2015 at 10:25:09 PM

Latest Report: Sep 1, 2015 at 10:00 PM


Visibility: 25 mi

Pressure: 29.86 "Hg

Humidity: 85%

Dew point: 55 °F

Location of SchwerinLocation

Historic Weather in Schwerin — Graph

°F

Schwerin temperature yesterday

Maximum temperature yesterday: 83 °F (at 6:00 PM)
Minimum temperature yesterday: 61 °F (at 6:00 AM)
Average temperature yesterday: 70 °F

Past Weeks' High & Low Weather Summary

 TemperatureHumidityPressure
High83 °F (Aug 31, 6:00 PM)100% (Aug 19, 4:00 AM)30.26 "Hg (Aug 19, 4:00 AM)
Low52 °F (Aug 29, 6:00 AM)43% (Aug 29, 4:00 PM)29.70 "Hg (Sep 1, 1:00 AM)
Average65 °F80%29.97 "Hg
* Reported Aug 17 9:00 PM — Sep 1 9:00 PM, Schwerin, Weather by CustomWeather, © 2015

Note: Actual official high and low records may vary slightly from our data, if they occured in-between our weather recording intervals... More about our weather records

Advertising

Schwerin weather history for previous 24 hours

 ConditionsComfort  
Time TempWeatherWind HumidityBarometerVisibility
9:00 PM
Tue, Sep 1
60 °FOvercast.7 mph87%29.84 "Hg25 mi
8:00 PM61 °FLight rain. Overcast.8 mph85%29.83 "Hg22 mi
7:00 PM62 °FLight rain. Overcast.6 mph83%29.80 "Hg19 mi
6:00 PM64 °FOvercast.6 mph78%29.80 "Hg40 mi
5:00 PM63 °FDrizzle. Overcast.5 mph84%29.80 "Hg31 mi
4:00 PM64 °FOvercast.6 mph78%29.78 "Hg31 mi
3:00 PM65 °FLight rain. Overcast.7 mph76%29.77 "Hg14 mi
2:00 PM67 °FOvercast.9 mph71%29.76 "Hg28 mi
1:00 PM68 °FOvercast.7 mph74%29.72 "Hg28 mi
12:00 PM70 °FOvercast.8 mph71%29.73 "Hg22 mi
10:00 AM70 °FPassing clouds.8 mph78%29.71 "Hg7 mi
9:00 AM68 °FFog.6 mph88%29.71 "Hg4 mi
8:00 AM67 °FFog.5 mph95%29.71 "Hg2 mi
7:00 AM66 °FFog.5 mph95%29.72 "Hg3 mi
4:00 AM69 °FOvercast.5 mph88%29.70 "Hg6 mi
3:00 AM71 °FOvercast.6 mph84%29.70 "Hg7 mi
2:00 AM70 °FOvercast.5 mph85%29.70 "Hg12 mi
1:00 AM73 °FPassing clouds.5 mph80%29.70 "Hg11 mi
10:00 PM
Mon, Aug 31
74 °FPassing clouds.2 mph85%29.70 "Hg11 mi
Weather by CustomWeather, © 2015

See weather overviewHow to use our weather pages